Regional Weather Roundup
Issued by NWS

Home | Current Version | Previous Version | Text Only | Print | Product List | Glossary Off
Versions: 1 2 3 4 5 6 7 8 9 10 11 12 13 14 15 16 17 18 19 20 21 22 23 24 25 26 27 28 29 30 31 32 33 34 35 36 37 38 39 40 41 42 43 44 45 46 47 48 49 50

804
ASUS43 KDMX 270708
RWRIA

WEATHER ROUNDUP FOR IOWA
NATIONAL WEATHER SERVICE DES MOINES IA
200 AM CDT TUE SEP 27 2016

NOTE: "FAIR" INDICATES FEW OR NO CLOUDS BELOW 12,000 FEET WITH NO
SIGNIFICANT WEATHER AND/OR OBSTRUCTIONS TO VISIBILITY.

* - THESE STATIONS ARE NOT NWS STATIONS...THUS NOT UNDER NWS
QUALITY CONTROL.  THEY ALSO DO NOT REPORT WEATHER SUCH
AS PRECIPITATION OR FOG.

IAZ001>003-012>014-020>022-031>034-043>046-270800-
   NORTHWEST IOWA

CITY           SKY/WX    TMP DP  RH WIND       PRES   REMARKS
CARROLL *      CLEAR     48  43  81 W7        30.02S
CHEROKEE *     CLEAR     49  40  71 W3        30.03S
DENISON *      CLEAR     45  43  93 CALM      30.02S
LE MARS *      CLEAR     50  41  71 CALM      30.05S
ORANGE CITY *  CLEAR     48  39  71 NW6       30.04R
SHELDON *      CLEAR     45  37  76 W7        30.01S
SIOUX CITY     PTCLDY    50  43  77 NW6       30.05S
SPENCER        CLEAR     43  38  82 W5        30.00F
STORM LAKE *   CLEAR     48  41  76 W9        30.03S
$$

IAZ055>058-069>071-079>083-090>094-270800-
   SOUTHWEST IOWA

CITY           SKY/WX    TMP DP  RH WIND       PRES   REMARKS
ATLANTIC *     CLEAR     48  46  93 CALM      30.04R
AUDUBON *      CLEAR     46  43  87 CALM      30.04R
CLARINDA *       N/A     48  46  93 MISG      30.07S
COUNCIL BLFS * CLEAR     54  46  76 SW6       30.05S
CRESTON *      CLEAR     52  45  76 W6        30.05S
HARLAN  *      PTCLDY    54  45  71 W8        30.07S
LAMONI         CLEAR     53  46  77 SW7       30.04S
RED OAK *      CLEAR     46  46 100 CALM      30.06R
SHENANDOAH *   CLEAR     50  46  87 CALM      30.06S
$$

IAZ047>049-059>061-072>074-084-270800-
   CENTRAL IOWA

CITY           SKY/WX    TMP DP  RH WIND       PRES   REMARKS
AMES           CLEAR     56  44  64 NW9       29.99S
ANKENY *         N/A    N/A N/A N/A MISG        N/A
BOONE *        CLEAR     55  41  58 W10       30.00S
CHARITON *       N/A     52  46  82 SW6       30.01F
DES MOINES     CLEAR     53  45  74 W7        30.00S
GRINNELL*      CLEAR     51  43  74 W6        29.99S
KNOXVILLE *    CLEAR     55  43  62 W8        29.99S
MARSHALLTOWN   CLEAR     48  42  80 W5        29.97S
NEWTON *       CLEAR     48  43  81 W7        29.98F
PELLA *        CLEAR     56  46  70 W7        30.01S
PERRY *          N/A     49  45  84 NW6       30.01S
$$

IAZ004>006-015-016-023>025-035-036-270800-
   NORTH CENTRAL IOWA

CITY           SKY/WX    TMP DP  RH WIND       PRES   REMARKS
ALGONA *       CLEAR     46  39  76 W9        29.98S
CLARION *      CLEAR     46  41  81 W6        29.98S
ESTHERVILLE    CLEAR     47  37  68 W9        29.98S
FORT DODGE *   CLEAR     48  37  66 W3        30.00S
MASON CITY     CLEAR     47  37  68 W9        29.96S
FOREST CITY *    N/A     45  34  65 W5        29.95F
WEBSTER CITY * CLEAR     46  43  87 W8        29.97F
IOWA FALLS *     N/A     47  41  80 W7        29.99S
$$

IAZ007>011-017>019-026>030-037>042-050>054-066-270800-
   NORTHEAST IOWA

CITY           SKY/WX    TMP DP  RH WIND       PRES   REMARKS
CEDAR RAPIDS   CLEAR     52  43  71 NW10      29.94F
CHARLES CITY * CLEAR     48  37  66 W7        29.94S
CLINTON *      CLEAR     47  43  86 W7        29.94S
DECORAH *      CLEAR     50  37  62 VRB5      29.89S
DUBUQUE        CLEAR     46  40  79 W8        29.91F
MONTICELLO *   CLEAR     50  41  71 W5        29.92F
OELWEIN *      CLEAR     46  39  76 W7        29.94S
WATERLOO       CLEAR     51  39  63 W7        29.94S
$$

IAZ064-065-067-068-078-270800-
   EAST CENTRAL IOWA

CITY           SKY/WX    TMP DP  RH WIND       PRES   REMARKS
DAVENPORT      CLEAR     52  42  69 W8        29.96R
IOWA CITY      CLEAR     50  43  77 W5        29.98S
MT. PLEASANT * CLEAR     54  47  76 SW7       30.00S
MUSCATINE *    CLEAR     55  45  67 W9        29.97S
QUAD CITIES    CLEAR     54  43  66 SW9       29.95S
$$

IAZ062-063-075>077-085>089-095>099-270800-
   SOUTHEAST IOWA

CITY           SKY/WX    TMP DP  RH WIND       PRES   REMARKS
BURLINGTON     CLEAR     56  46  69 W7        29.99S
FAIRFIELD *    CLEAR     52  43  71 SW8       30.00R
FORT MADISON * CLEAR     57  45  62 W6        30.01S
KEOKUK *       CLEAR     54  45  71 SW6       30.00F
OSKALOOSA *      N/A     49  43  80 W8        30.00S
OTTUMWA        CLEAR     51  42  71 SW8       30.00S
WASHINGTON *     N/A    N/A N/A N/A MISG        N/A
$$

ABBREVIATIONS USED IN REMARKS
   TC - TEMPERATURES IN CELSIUS
  WCI - WIND CHILL INDEX
   HX - HEAT INDEX
  VSB - VISIBILITY
$$





USA.gov is the U.S. government's official web portal to all federal, state and local government web resources and services.